Flag for Madagascar Weather past 2 weeks in Antsirabe, Madagascar

Now
64 °F

Scattered clouds.


Feels Like: 64 °F
Forecast: 52 / 64 °F
Wind: 15 mph from Southeast

Location: Antananarivo / Ivato

Current Time: Jul 25, 2014 at 10:35:05 AM

Latest Report: Jul 25, 2014 at 10:00 AM


Visibility: N/A

Pressure: 30.33 "Hg

Humidity: 88%

Dew point: 61 °F

Location of AntsirabeLocation

Historic Weather in Antsirabe — Graph

°F

Antsirabe temperature yesterday

Maximum temperature yesterday: 68 °F (at 1:30 PM)
Minimum temperature yesterday: 54 °F (at 12:00 AM)
Average temperature yesterday: 58 °F

Past Weeks' High & Low Weather Summary

 TemperatureHumidityPressure
High79 °F (Jul 19, 12:00 PM)100% (Jul 10, 6:30 PM)30.42 "Hg (Jul 10, 6:30 PM)
Low46 °F (Jul 13, 4:00 AM)53% (Jul 18, 12:30 PM)30.21 "Hg (Jul 10, 2:00 PM)
Average59 °F92%30.32 "Hg
* Reported Jul 10 9:00 AM — Jul 25 9:30 AM, Antsirabe, Weather by CustomWeather, © 2014

Note: Actual official high and low records may vary slightly from our data, if they occured in-between our weather recording intervals... More about our weather records

Advertising

Antsirabe weather history for previous 24 hours

 ConditionsComfort  
Time TempWeatherWind HumidityBarometerVisibility
9:30 AM
Jul 25
66 °FScattered clouds.15 mph83%30.33 "HgN/A
9:00 AM64 °FPartly sunny.9 mph88%30.33 "HgN/A
8:30 AM61 °FPartly sunny.6 mph100%30.33 "HgN/A
8:00 AM59 °FPartly sunny.8 mph100%30.33 "HgN/A
7:30 AM57 °FPartly sunny.6 mph100%30.30 "HgN/A
7:00 AM57 °FPartly sunny.8 mph100%30.30 "HgN/A
6:30 AM57 °FPartly sunny.7 mph100%30.30 "HgN/A
6:00 AM57 °FPassing clouds.5 mph100%30.30 "HgN/A
5:30 AM55 °FPassing clouds.3 mph100%30.30 "HgN/A
5:00 AM55 °FPassing clouds.3 mph100%30.27 "HgN/A
4:30 AM55 °FPassing clouds.3 mph100%30.27 "HgN/A
4:00 AM55 °FPassing clouds.5 mph100%30.27 "HgN/A
3:30 AM55 °FPassing clouds.7 mph100%30.27 "HgN/A
3:00 AM57 °FPassing clouds.5 mph100%30.30 "HgN/A
2:30 AM57 °FPassing clouds.5 mph100%30.30 "HgN/A
2:00 AM55 °FPassing clouds.6 mph100%30.30 "HgN/A
1:30 AM55 °FPassing clouds.6 mph100%30.30 "HgN/A
1:00 AM57 °FPassing clouds.5 mph100%30.30 "HgN/A
12:30 AM57 °FPassing clouds.6 mph100%30.30 "HgN/A
12:00 AM57 °FPassing clouds.7 mph100%30.33 "HgN/A
11:30 PM
Jul 24
57 °FPassing clouds.7 mph100%30.33 "HgN/A
11:00 PM57 °FPassing clouds.8 mph100%30.33 "HgN/A
10:30 PM57 °FPassing clouds.8 mph100%30.33 "HgN/A
10:00 PM57 °FPassing clouds.8 mph100%30.33 "HgN/A
9:30 PM57 °FPassing clouds.7 mph100%30.33 "HgN/A
9:00 PM55 °FPassing clouds.6 mph100%30.33 "HgN/A
8:30 PM55 °FPassing clouds.7 mph100%30.33 "HgN/A
8:00 PM55 °FPassing clouds.7 mph100%30.33 "HgN/A
7:30 PM55 °FPartly cloudy.8 mph100%30.33 "HgN/A
7:00 PM57 °FPartly cloudy.8 mph100%30.33 "HgN/A
6:30 PM57 °FLight rain. Partly cloudy.9 mph100%30.30 "HgN/A
6:00 PM57 °FPartly cloudy.9 mph100%30.30 "HgN/A
5:30 PM59 °FBroken clouds.9 mph94%30.30 "HgN/A
5:00 PM61 °FBroken clouds.13 mph94%30.27 "HgN/A
4:30 PM61 °FBroken clouds.12 mph94%30.27 "HgN/A
4:00 PM64 °FBroken clouds.10 mph78%30.27 "HgN/A
3:30 PM64 °FBroken clouds.12 mph83%30.27 "HgN/A
3:00 PM64 °FBroken clouds.12 mph83%30.27 "HgN/A
2:30 PM66 °FBroken clouds.14 mph78%30.27 "HgN/A
2:00 PM66 °FBroken clouds.14 mph73%30.27 "HgN/A
1:30 PM68 °FBroken clouds.14 mph73%30.27 "HgN/A
1:00 PM66 °FPartly sunny.15 mph78%30.27 "HgN/A
12:30 PM66 °FPartly sunny.15 mph78%30.30 "HgN/A
12:00 PM64 °FPartly sunny.13 mph83%30.30 "HgN/A
11:30 AM64 °FPartly sunny.16 mph78%30.33 "HgN/A
11:00 AM66 °FScattered clouds.15 mph78%30.33 "HgN/A
10:00 AM64 °FScattered clouds.14 mph83%30.33 "HgN/A
Weather by CustomWeather, © 2014

See weather overviewHow to use our weather pages